"2010-11-22 00:00:00",357421,5.094,120.2,4.715,1.133,1.18,98.60307,-4.259,-3.005,97.4,0,109.3,13.66,-3.52,82.2
"2010-11-22 00:00:30",357422,4.833,118.5,6.823,1.085,1.306,98.57701,-4.325,-3.101,97.3,0,109.3,13.66,-3.59,80.5
"2010-11-22 00:01:00",357423,5.112,119.8,5.646,0.998,1.339,98.57191,-4.338,-3.125,97.3,0,109.3,13.66,-3.60,81.8
"2010-11-22 00:01:30",357424,5.089,114.1,6.027,1.147,0.715,98.55917,-4.371,-3.168,97.3,0,109.3,13.66,-3.63,76.1
"2010-11-22 00:02:00",357425,5.831,114.3,4.436,0.36,2.188,98.53422,-4.434,-3.155,97.3,0,109.3,13.66,-3.70,76.3
"2010-11-22 00:02:30",357426,5.134,108.1,5.488,1.078,0.427,98.50703,-4.504,-3.282,97.2,0,109.3,13.66,-3.77,70.1
"2010-11-22 00:03:00",357427,5.704,108.4,5.629,0.874,1.52,98.47443,-4.586,-3.289,97.2,0,109.3,13.66,-3.85,70.4
"2010-11-22 00:03:30",357428,5.396,108.1,5.899,1.235,1.28,98.45686,-4.631,-3.311,97.2,0,109.3,13.66,-3.90,70.1
"2010-11-22 00:04:00",357429,5.374,109.4,5.619,1.107,1.054,98.43645,-4.683,-3.415,97.1,0,109.4,13.67,-3.95,71.4
"2010-11-22 00:04:30",357430,5.502,113.6,5.339,0.897,1.254,98.43841,-4.678,-3.435,97.2,0,109.3,13.66,-3.94,75.6
"2010-11-22 00:05:00",357431,5.628,115.9,3.7,0.665,1.742,98.4387,-4.677,-3.384,97.3,0,109.3,13.67,-3.94,77.9
"2010-11-22 00:05:30",357432,5.227,115,5.758,1.082,0.674,98.43842,-4.678,-3.428,97.3,0,109.3,13.66,-3.94,77.0
"2010-11-22 00:06:00",357433,5.516,113.1,6.067,1.111,0.713,98.44009,-4.674,-3.519,97.3,0,109.3,13.66,-3.94,75.1
"2010-11-22 00:06:30",357434,5.894,112.6,5.956,1.243,1.068,98.44734,-4.655,-3.477,97.4,0,109.3,13.67,-3.92,74.6
"2010-11-22 00:07:00",357435,6.473,114.7,4.653,0.741,1.246,98.4218,-4.72,-3.538,97.3,0,109.3,13.67,-3.99,76.7
"2010-11-22 00:07:30",357436,5.893,112.3,5.86,1.155,1.026,98.41155,-4.747,-3.531,97.4,0,109.3,13.67,-4.01,74.3
"2010-11-22 00:08:00",357437,5.968,114.3,4.594,0.824,1.778,98.39991,-4.776,-3.569,97.3,0,109.3,13.67,-4.04,76.3
"2010-11-22 00:08:30",357438,6.145,112.7,3.677,0.637,1.898,98.40357,-4.767,-3.55,97.4,0,109.3,13.66,-4.03,74.7
"2010-11-22 00:09:00",357439,5.952,110.9,4.384,0.444,1.871,98.4027,-4.769,-3.546,97.5,0,109.3,13.67,-4.03,72.9
"2010-11-22 00:09:30",357440,4.712,115.2,3.963,0.639,2.184,98.42476,-4.713,-3.559,97.5,0,109.3,13.66,-3.98,77.2
"2010-11-22 00:10:00",357441,3.915,110.9,5.727,1.144,0.631,98.46782,-4.603,-3.507,97.6,0,109.3,13.67,-3.87,72.9
"2010-11-22 00:10:30",357442,3.341,104,5.247,0.988,-1.656,98.49447,-4.535,-3.744,97.4,0,109.3,13.66,-3.80,66.0
"2010-11-22 00:11:00",357443,3.372,107.4,5.369,0.999,-1.01,98.48935,-4.549,-3.623,97.5,0,109.3,13.67,-3.81,69.4
"2010-11-22 00:11:30",357444,4.213,114.1,7.513,1.007,0.473,98.46666,-4.606,-3.511,97.6,0,109.3,13.67,-3.87,76.1
"2010-11-22 00:12:00",357445,4.531,121.8,5.04,0.766,1.875,98.46129,-4.62,-3.448,97.7,0,109.3,13.68,-3.88,83.8
"2010-11-22 00:12:30",357446,4.522,128.3,3.532,0.852,2.085,98.46469,-4.611,-3.451,97.7,0,109.3,13.68,-3.88,90.3
"2010-11-22 00:13:00",357447,3.984,131.5,4.698,1.145,1.039,98.49783,-4.527,-3.434,97.7,0,109.3,13.68,-3.79,93.5
"2010-11-22 00:13:30",357448,3.549,126.2,6.75,1.186,-0.237,98.52818,-4.45,-3.601,97.6,0,109.3,13.66,-3.71,88.2
"2010-11-22 00:14:00",357449,2.663,115.6,4.67,0.884,-1.851,98.53378,-4.435,-3.579,97.6,0,109.3,13.67,-3.70,77.6
"2010-11-22 00:14:30",357450,4.024,113,7.333,1.006,0.406,98.5284,-4.449,-3.528,97.7,0,109.3,13.66,-3.71,75.0
"2010-11-22 00:15:00",357451,4.326,106.5,7.941,1.163,0.607,98.50062,-4.52,-3.485,97.7,0,109.3,13.67,-3.78,68.5
"2010-11-22 00:15:30",357452,5.053,106.3,4.243,0.799,2.099,98.47172,-4.593,-3.437,97.8,0,109.3,13.67,-3.86,68.3
"2010-11-22 00:16:00",357453,5.594,107.9,4.499,0.675,1.811,98.43826,-4.679,-3.507,97.7,0,109.3,13.67,-3.94,69.9
"2010-11-22 00:16:30",357454,5.447,112,5.49,1,1.094,98.40651,-4.759,-3.577,97.6,0,109.3,13.66,-4.02,74.0
"2010-11-22 00:17:00",357455,4.876,107,6.509,1.048,0.892,98.398,-4.781,-3.636,97.6,0,109.3,13.66,-4.05,69.0
"2010-11-22 00:17:30",357456,4.664,113.4,6.168,1.073,-0.017,98.38182,-4.822,-3.751,97.5,0,109.3,13.66,-4.09,75.4
"2010-11-22 00:18:00",357457,3.033,103.4,3.645,0.711,-2.487,98.36595,-4.863,-3.848,97.5,0,109.3,13.67,-4.13,65.4
"2010-11-22 00:18:30",357458,4.492,108,6.321,0.979,0.78,98.36623,-4.862,-3.795,97.5,0,109.3,13.67,-4.13,70.0
"2010-11-22 00:19:00",357459,4.285,108.4,4.759,1.103,1.306,98.36962,-4.853,-3.688,97.7,0,109.3,13.68,-4.12,70.4
"2010-11-22 00:19:30",357460,4.315,109.3,5.223,0.843,1.806,98.38353,-4.818,-3.77,97.6,0,109.3,13.68,-4.08,71.3
"2010-11-22 00:20:00",357461,3.377,103.8,7.166,1.099,0.153,98.40137,-4.773,-3.771,97.6,0,109.3,13.68,-4.04,65.8
"2010-11-22 00:20:30",357462,3.091,96.8,6.855,1.174,0.599,98.43027,-4.699,-3.78,97.7,0,109.3,13.68,-3.96,58.8
"2010-11-22 00:21:00",357463,1.74,85.7,5.445,1.03,-1.774,98.46315,-4.615,-3.884,97.6,0,109.3,13.68,-3.88,47.7
"2010-11-22 00:21:30",357464,2.27,76.52,10.18,1.204,-0.337,98.4827,-4.565,-3.611,97.8,0,109.3,13.68,-3.83,38.5
"2010-11-22 00:22:00",357465,1.992,49.2,6.283,1.161,-1.247,98.5102,-4.495,-3.678,97.8,0,109.3,13.68,-3.76,11.2
"2010-11-22 00:22:30",357466,2.734,44.12,6.853,1.197,-0.436,98.54166,-4.415,-3.652,97.8,0,109.3,13.68,-3.68,6.1
"2010-11-22 00:23:00",357467,2.722,45.84,6.282,1.172,-0.613,98.56774,-4.349,-3.484,98,0,109.3,13.69,-3.61,7.8
"2010-11-22 00:23:30",357468,3.19,49.85,5.528,1.058,0.036,98.57142,-4.34,-3.523,97.9,0,109.3,13.69,-3.60,11.8
"2010-11-22 00:24:00",357469,2.638,50.04,6.302,1.225,-1.712,98.57114,-4.34,-3.508,97.9,0,109.3,13.69,-3.60,12.0
"2010-11-22 00:24:30",357470,2.721,59.5,7.618,1.19,-0.762,98.54337,-4.411,-3.447,98,0,109.3,13.69,-3.67,21.5
"2010-11-22 00:25:00",357471,2.172,43.33,8.98,1.131,-1.792,98.53798,-4.425,-3.59,97.8,0,109.3,13.69,-3.69,5.3
"2010-11-22 00:25:30",357472,2.644,37.48,5.918,1.107,0.809,98.57455,-4.332,-3.411,98,0,109.3,13.69,-3.59,359.5
"2010-11-22 00:26:00",357473,2.365,16.71,14.18,1.148,0.124,98.60715,-4.249,-3.345,98.1,0,109.3,13.69,-3.51,338.7
"2010-11-22 00:26:30",357474,3.004,355.9,8.17,1.117,0.222,98.6403,-4.164,-3.293,98.1,0,109.3,13.69,-3.43,317.9
"2010-11-22 00:27:00",357475,3.015,351.4,8.56,1.154,-0.032,98.68083,-4.061,-3.303,98.1,0,109.3,13.69,-3.32,313.4
"2010-11-22 00:27:30",357476,3.284,354,7.441,1.17,0.93,98.72051,-3.96,-3.147,98.2,0,109.3,13.69,-3.22,316.0
"2010-11-22 00:28:00",357477,2.714,358.4,7.841,1.14,1.203,98.75566,-3.87,-3.034,98.2,0,109.3,13.69,-3.13,320.4
"2010-11-22 00:28:30",357478,2.666,358.4,7.603,1.393,0.51,98.77947,-3.81,-3.036,98.2,0,109.3,13.69,-3.07,320.4
"2010-11-22 00:29:00",357479,2.929,0.719,6.445,1.2,1.04,98.81094,-3.73,-2.858,98.3,0,109.3,13.69,-2.99,322.7
"2010-11-22 00:29:30",357480,2.528,356.9,7.909,1.168,0.027,98.84013,-3.655,-2.806,98.3,0,109.3,13.69,-2.92,318.9
"2010-11-22 00:30:00",357481,2.355,349.6,5.328,0.927,-1.042,98.84353,-3.647,-2.812,98.2,0,109.3,13.69,-2.91,311.6
"2010-11-22 00:30:30",357482,3.63,358.4,6.898,1.038,1.432,98.86394,-3.595,-2.725,98.3,0,109.3,13.69,-2.86,320.4
"2010-11-22 00:31:00",357483,3.474,1.114,6.892,1.135,1.869,98.87755,-3.56,-2.625,98.3,0,109.3,13.68,-2.82,323.1
"2010-11-22 00:31:30",357484,2.501,10.02,11.1,1.131,0.974,98.87669,-3.562,-2.683,98.2,0,109.3,13.68,-2.82,332.0
"2010-11-22 00:32:00",357485,2.253,2.154,10.38,1.181,-0.101,98.84921,-3.632,-2.664,98.2,0,109.3,13.68,-2.89,324.2
"2010-11-22 00:32:30",357486,2.068,13.13,10.35,1.242,-0.973,98.84042,-3.654,-2.789,98,0,109.3,13.68,-2.92,335.1
"2010-11-22 00:33:00",357487,1.013,7.361,10.42,0.295,-2.536,98.81009,-3.732,-2.731,98,0,109.3,13.72,-2.99,329.4
"2010-11-22 00:33:30",357488,2.555,49.67,15.08,1.314,0.02,98.77778,-3.814,-2.662,98.1,0,109.3,13.69,-3.08,11.7
"2010-11-22 00:34:00",357489,2.478,49.35,10.34,1.102,0.616,98.74348,-3.901,-2.681,98,0,109.3,13.69,-3.16,11.3
"2010-11-22 00:34:30",357490,1.663,43.48,9.11,1.148,-1.255,98.72761,-3.942,-2.825,97.8,0,109.3,13.69,-3.20,5.5
"2010-11-22 00:35:00",357491,1.826,40.72,8.88,1.18,-1.409,98.70748,-3.993,-2.933,97.7,0,109.3,13.69,-3.26,2.7
"2010-11-22 00:35:30",357492,2.44,24.57,10.49,1.219,0.596,98.70748,-3.993,-2.82,97.8,0,109.3,13.69,-3.26,346.6
"2010-11-22 00:36:00",357493,1.555,42.1,8.46,0.643,-2.86,98.70719,-3.994,-2.995,97.7,0,109.3,13.69,-3.26,4.1
"2010-11-22 00:36:30",357494,2.551,54.31,9.39,1.217,0.193,98.68708,-4.045,-2.838,97.8,0,109.3,13.7,-3.31,16.3
"2010-11-22 00:37:00",357495,2.517,50.94,8.6,1.163,0.12,98.67744,-4.07,-2.907,97.7,0,109.3,13.7,-3.33,12.9
"2010-11-22 00:37:30",357496,2.097,67.11,9.71,1.092,-0.422,98.67715,-4.07,-2.944,97.7,0,109.3,13.7,-3.33,29.1
"2010-11-22 00:38:00",357497,1.564,64.9,7.391,1.068,-1.755,98.67772,-4.069,-3.027,97.6,0,109.3,13.7,-3.33,26.9
"2010-11-22 00:38:30",357498,2.417,89.1,5.717,1.18,0.577,98.67829,-4.067,-2.933,97.7,0,109.3,13.7,-3.33,51.1
"2010-11-22 00:39:00",357499,1.824,83.8,7.607,1.101,-0.738,98.67346,-4.08,-2.976,97.6,0,109.3,13.7,-3.34,45.8
"2010-11-22 00:39:30",357500,3.552,99.4,7.682,0.838,1.737,98.6729,-4.081,-2.888,97.7,0,109.3,13.7,-3.34,61.4
"2010-11-22 00:40:00",357501,4.494,117,6.042,0.817,0.25,98.61054,-4.24,-3.032,97.6,0,109.3,13.7,-3.50,79.0
"2010-11-22 00:40:30",357502,4.354,111.7,6.411,1.108,0.71,98.5187,-4.474,-3.075,97.5,0,109.3,13.7,-3.74,73.7
"2010-11-22 00:41:00",357503,4.218,107.7,5.718,1.015,0.725,98.45691,-4.631,-3.289,97.2,0,109.3,13.7,-3.90,69.7
"2010-11-22 00:41:30",357504,4.056,116.6,8.1,1.064,0.711,98.43508,-4.687,-3.35,97.2,0,109.3,13.7,-3.95,78.6
"2010-11-22 00:42:00",357505,3.669,119.7,6.437,1.059,-0.913,98.43537,-4.686,-3.503,97.1,0,109.3,13.7,-3.95,81.7
"2010-11-22 00:42:30",357506,4.861,120.3,7.659,0.86,0.678,98.40929,-4.752,-3.456,97.2,0,109.3,13.7,-4.02,82.3
"2010-11-22 00:43:00",357507,4.584,111.8,6.756,1.171,0.42,98.36054,-4.876,-3.549,97.1,0,109.3,13.7,-4.14,73.8
"2010-11-22 00:43:30",357508,5.598,106.6,4.274,0.518,2.057,98.33389,-4.944,-3.559,97.1,0,109.3,13.7,-4.21,68.6
"2010-11-22 00:44:00",357509,5.023,106.1,7.187,1.137,0.588,98.30838,-5.009,-3.699,97,0,109.3,13.7,-4.27,68.1
"2010-11-22 00:44:30",357510,4.708,108.9,6.106,1.02,0.195,98.28798,-5.061,-3.775,96.9,0,109.3,13.69,-4.33,70.9
"2010-11-22 00:45:00",357511,3.132,94,6.111,0.62,-2.526,98.26615,-5.117,-3.954,96.8,0,109.3,13.7,-4.38,56.0
"2010-11-22 00:45:30",357512,4.296,84.7,9.85,1.024,1.561,98.28968,-5.057,-3.788,97,0,109.3,13.69,-4.32,46.7
"2010-11-22 00:46:00",357513,4.176,83.9,5.263,1.168,0.946,98.35006,-4.903,-3.843,97.1,0,109.3,13.7,-4.17,45.9
"2010-11-22 00:46:30",357514,4.921,89.2,6.479,0.969,1.029,98.39427,-4.791,-3.71,97.3,0,109.3,13.69,-4.06,51.2
"2010-11-22 00:47:00",357515,5.952,99,4.698,0.839,1.342,98.37046,-4.851,-3.696,97.4,0,109.3,13.69,-4.12,61.0
"2010-11-22 00:47:30",357516,7.302,108.4,4.905,0.682,0.693,98.33248,-4.948,-3.732,97.4,0,109.3,13.69,-4.21,70.4
"2010-11-22 00:48:00",357517,6.761,109.8,4.606,0.685,0.686,98.28854,-5.06,-3.791,97.3,0,109.3,13.69,-4.33,71.8
"2010-11-22 00:48:30",357518,6.641,113.2,4.564,0.707,0.785,98.25368,-5.149,-3.872,97.2,0,109.3,13.69,-4.41,75.2
"2010-11-22 00:49:00",357519,5.221,109.8,6.57,1.216,-0.659,98.23129,-5.206,-3.987,97.1,0,109.3,13.68,-4.47,71.8
"2010-11-22 00:49:30",357520,6.124,120.9,3.302,0.756,0.858,98.22137,-5.231,-3.961,97.2,0,109.3,13.68,-4.50,82.9
"2010-11-22 00:50:00",357521,6.164,125.5,3.995,0.659,1.005,98.2021,-5.28,-4.001,97.2,0,109.3,13.69,-4.55,87.5
"2010-11-22 00:50:30",357522,6.01,130.2,4.498,0.829,1.267,98.19784,-5.291,-4.016,97.2,0,109.3,13.69,-4.56,92.2
"2010-11-22 00:51:00",357523,5.458,127.5,4.806,0.584,0.968,98.19784,-5.291,-4.037,97.2,0,109.3,13.69,-4.56,89.5
"2010-11-22 00:51:30",357524,6.302,127.7,4.244,0.998,0.732,98.19839,-5.289,-4.082,97.3,0,109.3,13.69,-4.56,89.7
"2010-11-22 00:52:00",357525,6.868,129.5,3.157,0.975,0.555,98.18984,-5.311,-4.081,97.3,0,109.3,13.69,-4.58,91.5
"2010-11-22 00:52:30",357526,7.009,118.5,5.048,0.505,0.788,98.18298,-5.329,-4.097,97.2,0,109.3,13.69,-4.60,80.5
"2010-11-22 00:53:00",357527,6.531,112.7,4.357,0.756,0.994,98.18102,-5.334,-4.122,97.3,0,109.3,13.69,-4.60,74.7
"2010-11-22 00:53:30",357528,7.203,106.8,4.666,0.492,0.898,98.18579,-5.321,-4.148,97.3,0,109.3,13.69,-4.59,68.8
"2010-11-22 00:54:00",357529,7.04,107.2,5.089,0.744,0.714,98.17957,-5.337,-4.125,97.4,0,109.3,13.69,-4.60,69.2
"2010-11-22 00:54:30",357530,6.68,101.8,6.383,0.78,1.311,98.1973,-5.292,-4.147,97.4,0,109.3,13.69,-4.56,63.8
"2010-11-22 00:55:00",357531,6.6,102.8,6.477,0.65,1.052,98.24609,-5.168,-4.068,97.5,0,109.3,13.69,-4.43,64.8
"2010-11-22 00:55:30",357532,5.994,95.3,4.997,0.733,0.908,98.25084,-5.156,-4.076,97.5,0,109.3,13.69,-4.42,57.3
"2010-11-22 00:56:00",357533,6.281,96.7,3.972,0.743,0.554,98.24689,-5.166,-4.047,97.5,0,109.3,13.69,-4.43,58.7
"2010-11-22 00:56:30",357534,5.367,93.8,4.722,0.85,0.022,98.24772,-5.164,-4.058,97.5,0,109.3,13.69,-4.43,55.8
"2010-11-22 00:57:00",357535,5.859,91.7,5.269,0.863,-0.729,98.23608,-5.193,-4.103,97.5,0,109.3,13.69,-4.46,53.7
"2010-11-22 00:57:30",357536,5.332,102,7.533,0.886,-1.068,98.2137,-5.25,-4.182,97.4,0,109.3,13.69,-4.52,64.0
"2010-11-22 00:58:00",357537,3.831,95.7,9.91,0.735,-3.264,98.21453,-5.248,-4.28,97.3,0,109.3,13.69,-4.51,57.7
"2010-11-22 00:58:30",357538,4.713,102.8,6.81,1.142,-0.918,98.21225,-5.254,-4.202,97.4,0,109.3,13.69,-4.52,64.8
"2010-11-22 00:59:00",357539,4.836,101.8,5.367,0.823,0.291,98.19801,-5.29,-4.201,97.4,0,109.3,13.7,-4.56,63.8
"2010-11-22 00:59:30",357540,5.464,97.3,6.577,0.446,0.386,98.18246,-5.33,-4.165,97.5,0,109.3,13.7,-4.60,59.3
"2010-11-22 01:00:00",357541,5.004,86.4,8.55,0.634,0.158,98.18358,-5.327,-4.18,97.5,0,109.3,13.7,-4.59,48.4
"2010-11-22 01:00:30",357542,4.788,75.89,8.1,1.01,-0.982,98.20937,-5.261,-4.222,97.5,0,109.3,13.7,-4.53,37.9
"2010-11-22 01:01:00",357543,4.232,77.44,5.544,1.14,-2.124,98.22887,-5.212,-4.179,97.5,0,109.3,13.7,-4.48,39.4
"2010-11-22 01:01:30",357544,4.542,90.1,8.65,1.186,-1.231,98.22349,-5.225,-4.302,97.4,0,109.3,13.7,-4.49,52.1
"2010-11-22 01:02:00",357545,5.382,103,5.297,0.86,-0.267,98.21982,-5.235,-4.162,97.6,0,109.3,13.7,-4.50,65.0
"2010-11-22 01:02:30",357546,5.608,109.5,5.333,0.754,0.524,98.20023,-5.285,-4.163,97.6,0,109.3,13.7,-4.55,71.5
"2010-11-22 01:03:00",357547,5.664,109.7,7.285,0.613,0.672,98.18999,-5.311,-4.184,97.6,0,109.3,13.7,-4.58,71.7
"2010-11-22 01:03:30",357548,6.151,110.1,4.316,0.682,0.214,98.18803,-5.316,-4.178,97.6,0,109.3,13.69,-4.58,72.1
"2010-11-22 01:04:00",357549,6.336,110.9,4.267,0.747,0.214,98.18914,-5.313,-4.204,97.6,0,109.3,13.69,-4.58,72.9
"2010-11-22 01:04:30",357550,6.961,104.6,5.744,0.419,0.344,98.18887,-5.314,-4.195,97.6,0,109.3,13.69,-4.58,66.6
"2010-11-22 01:05:00",357551,6.556,101,4.043,0.706,-0.307,98.18887,-5.314,-4.213,97.6,0,109.3,13.69,-4.58,63.0
"2010-11-22 01:05:30",357552,6.575,102.6,5.519,0.85,-0.418,98.19084,-5.309,-4.167,97.6,0,109.3,13.69,-4.58,64.6
"2010-11-22 01:06:00",357553,6.211,110.1,5.192,0.818,-0.358,98.18943,-5.312,-4.188,97.6,0,109.3,13.69,-4.58,72.1
"2010-11-22 01:06:30",357554,5.968,111.1,4.208,0.769,-0.449,98.19111,-5.308,-4.213,97.6,0,109.3,13.69,-4.57,73.1
"2010-11-22 01:07:00",357555,5.769,115.8,8.05,0.416,-0.254,98.18999,-5.311,-4.21,97.6,0,109.3,13.69,-4.58,77.8
"2010-11-22 01:07:30",357556,5.392,128.4,4.753,0.772,-0.74,98.18859,-5.314,-4.213,97.6,0,109.3,13.69,-4.58,90.4
"2010-11-22 01:08:00",357557,5.53,112.1,6.752,0.518,-0.459,98.18887,-5.314,-4.202,97.7,0,109.3,13.7,-4.58,74.1
"2010-11-22 01:08:30",357558,5.491,113.8,5.111,0.623,-0.739,98.18832,-5.315,-4.195,97.7,0,109.3,13.7,-4.58,75.8
"2010-11-22 01:09:00",357559,3.773,104.3,6.385,1.051,-3.873,98.18998,-5.311,-4.441,97.4,0,109.3,13.7,-4.58,66.3
"2010-11-22 01:09:30",357560,4.451,108.7,8.98,0.993,-3.243,98.18859,-5.314,-4.361,97.5,0,109.3,13.7,-4.58,70.7
"2010-11-22 01:10:00",357561,4.295,98.2,6.055,1.006,-2.464,98.18914,-5.313,-4.334,97.5,0,109.3,13.7,-4.58,60.2
"2010-11-22 01:10:30",357562,5.202,106.2,5.35,0.532,0.306,98.18916,-5.313,-4.185,97.7,0,109.3,13.7,-4.58,68.2
"2010-11-22 01:11:00",357563,5.221,105.5,5.612,0.816,0.258,98.19083,-5.309,-4.198,97.7,0,109.3,13.7,-4.58,67.5
"2010-11-22 01:11:30",357564,5.743,111.4,3.172,0.827,0.071,98.18972,-5.311,-4.169,97.7,0,109.3,13.7,-4.58,73.4
"2010-11-22 01:12:00",357565,5.972,107.6,5.832,0.771,-0.058,98.18914,-5.313,-4.173,97.7,0,109.3,13.7,-4.58,69.6
"2010-11-22 01:12:30",357566,6.319,116.5,5.51,0.918,-0.512,98.18887,-5.314,-4.19,97.7,0,109.3,13.7,-4.58,78.5
"2010-11-22 01:13:00",357567,6.754,123.9,4.812,0.692,-0.729,98.18971,-5.311,-4.194,97.7,0,109.3,13.7,-4.58,85.9
"2010-11-22 01:13:30",357568,5.868,116.1,7.222,0.739,-1.099,98.19762,-5.291,-4.255,97.7,0,109.3,13.7,-4.56,78.1
"2010-11-22 01:14:00",357569,6.53,116.8,8.36,1.175,-0.966,98.19959,-5.286,-4.192,97.7,0,109.3,13.7,-4.55,78.8
"2010-11-22 01:14:30",357570,6.475,126.3,6.183,0.968,-0.617,98.19902,-5.288,-4.202,97.7,0,109.3,13.7,-4.55,88.3
"2010-11-22 01:15:00",357571,6.27,128.9,4.538,0.653,0.146,98.19363,-5.301,-4.178,97.7,0,109.3,13.7,-4.57,90.9
"2010-11-22 01:15:30",357572,5.991,131.2,5.386,0.522,-0.047,98.19109,-5.308,-4.179,97.7,0,109.3,13.7,-4.57,93.2
"2010-11-22 01:16:00",357573,5.97,109.4,8.04,0.736,0.16,98.19304,-5.303,-4.195,97.7,0,109.3,13.7,-4.57,71.4
"2010-11-22 01:16:30",357574,5.277,111.2,5.975,0.722,0.116,98.19276,-5.304,-4.177,97.7,0,109.3,13.7,-4.57,73.2
"2010-11-22 01:17:00",357575,5.71,117,6.148,0.814,-0.733,98.19446,-5.299,-4.189,97.7,0,109.3,13.7,-4.57,79.0
"2010-11-22 01:17:30",357576,6.134,116.9,9.42,0.825,-0.717,98.19953,-5.286,-4.172,97.8,0,109.3,13.7,-4.55,78.9
"2010-11-22 01:18:00",357577,5.414,136.6,7.051,0.8,-1.096,98.20349,-5.276,-4.179,97.7,0,109.3,13.7,-4.54,98.6
"2010-11-22 01:18:30",357578,5.945,142.9,4.443,0.73,-1.201,98.20207,-5.28,-4.178,97.8,0,109.3,13.7,-4.55,104.9
"2010-11-22 01:19:00",357579,5.76,134.9,7.455,0.659,-0.875,98.20181,-5.281,-4.174,97.7,0,109.3,13.7,-4.55,96.9
"2010-11-22 01:19:30",357580,6.413,119,6.33,0.57,-0.75,98.19811,-5.29,-4.177,97.8,0,109.3,13.7,-4.56,81.0
"2010-11-22 01:20:00",357581,5.706,119.2,11.03,0.795,-0.956,98.19555,-5.297,-4.163,97.7,0,109.3,13.69,-4.56,81.2
"2010-11-22 01:20:30",357582,6.083,109.9,6.282,0.71,-0.813,98.19694,-5.293,-4.183,97.8,0,109.3,13.69,-4.56,71.9
"2010-11-22 01:21:00",357583,6.351,118.2,3.698,0.507,-1.199,98.19839,-5.289,-4.196,97.7,0,109.3,13.69,-4.56,80.2
"2010-11-22 01:21:30",357584,5.853,120.6,6.449,1.075,-2.045,98.20264,-5.278,-4.276,97.7,0,109.3,13.69,-4.55,82.6
"2010-11-22 01:22:00",357585,5.271,110.6,5.525,1.097,-2.92,98.20603,-5.27,-4.288,97.6,0,109.3,13.69,-4.54,72.6
"2010-11-22 01:22:30",357586,5.874,105.8,5.498,1.056,-0.707,98.21114,-5.257,-4.208,97.7,0,109.3,13.7,-4.52,67.8
"2010-11-22 01:23:00",357587,6.45,112.1,5.958,1.111,0.526,98.20887,-5.263,-4.2,97.8,0,109.3,13.7,-4.53,74.1
"2010-11-22 01:23:30",357588,7.296,117.5,5.447,0.755,1.11,98.20064,-5.284,-4.159,97.8,0,109.3,13.7,-4.55,79.5
"2010-11-22 01:24:00",357589,7.498,122.3,3.598,0.676,1.352,98.1961,-5.295,-4.172,97.8,0,109.3,13.71,-4.56,84.3
"2010-11-22 01:24:30",357590,7.397,126.7,5.235,0.635,1.471,98.1961,-5.295,-4.166,97.8,0,109.3,13.71,-4.56,88.7
"2010-11-22 01:25:00",357591,6.953,129.9,4.905,0.623,1.313,98.19582,-5.296,-4.177,97.8,0,109.3,13.71,-4.56,91.9
"2010-11-22 01:25:30",357592,5.514,124.2,7.415,0.831,1.323,98.1961,-5.295,-4.169,97.7,0,109.3,13.71,-4.56,86.2
"2010-11-22 01:26:00",357593,4.878,107.6,5.473,0.594,1.408,98.1961,-5.295,-4.177,97.7,0,109.3,13.71,-4.56,69.6
"2010-11-22 01:26:30",357594,5.134,94.1,8.6,0.983,0.659,98.1961,-5.295,-4.188,97.7,0,109.3,13.71,-4.56,56.1
"2010-11-22 01:27:00",357595,6.071,108.1,8.3,0.538,0.573,98.19666,-5.294,-4.218,97.7,0,109.3,13.71,-4.56,70.1
"2010-11-22 01:27:30",357596,5.129,99.7,6.749,0.873,0.685,98.19666,-5.294,-4.211,97.7,0,109.3,13.71,-4.56,61.7
"2010-11-22 01:28:00",357597,3.367,101.1,6.995,0.923,-2.878,98.19581,-5.296,-4.344,97.6,0,109.3,13.71,-4.56,63.1
"2010-11-22 01:28:30",357598,2.751,89.4,7.866,0.998,-3.29,98.18985,-5.311,-4.447,97.5,0,109.3,13.71,-4.58,51.4
"2010-11-22 01:29:00",357599,4.245,90,10.65,1.085,-0.961,98.18845,-5.315,-4.254,97.7,0,109.3,13.71,-4.58,52.0
"2010-11-22 01:29:30",357600,5.27,115.9,10.17,0.736,0.812,98.18532,-5.323,-4.206,97.7,0,109.3,13.71,-4.59,77.9
"2010-11-22 01:30:00",357601,5.021,100.4,4.594,0.939,1.059,98.17086,-5.359,-4.21,97.7,0,109.3,13.71,-4.63,62.4
"2010-11-22 01:30:30",357602,5.083,116.1,8.89,0.669,0.912,98.16718,-5.369,-4.212,97.8,0,109.3,13.71,-4.64,78.1
"2010-11-22 01:31:00",357603,5.353,113.6,4.317,0.622,0.401,98.16264,-5.38,-4.232,97.7,0,109.3,13.71,-4.65,75.6
"2010-11-22 01:31:30",357604,4.693,112.1,9,0.99,-0.772,98.16264,-5.38,-4.324,97.6,0,109.3,13.71,-4.65,74.1
"2010-11-22 01:32:00",357605,4.153,102.9,5.404,1.011,-2.427,98.16264,-5.38,-4.297,97.7,0,109.3,13.71,-4.65,64.9
"2010-11-22 01:32:30",357606,4.738,97.9,8.5,1.224,-0.942,98.16264,-5.38,-4.414,97.6,0,109.3,13.71,-4.65,59.9
"2010-11-22 01:33:00",357607,5.232,111.2,10.5,0.81,0.502,98.16264,-5.38,-4.271,97.7,0,109.3,13.71,-4.65,73.2
"2010-11-22 01:33:30",357608,5.385,112,7.603,0.857,0.841,98.16264,-5.38,-4.247,97.7,0,109.3,13.71,-4.65,74.0
"2010-11-22 01:34:00",357609,5.717,99.9,3.997,0.825,0.621,98.16264,-5.38,-4.261,97.7,0,109.3,13.72,-4.65,61.9
"2010-11-22 01:34:30",357610,5.101,99.3,3.783,0.913,0.256,98.16264,-5.38,-4.26,97.7,0,109.3,13.71,-4.65,61.3
"2010-11-22 01:35:00",357611,5.035,100.4,7.103,1.059,-0.983,98.16264,-5.38,-4.347,97.7,0,109.3,13.71,-4.65,62.4
"2010-11-22 01:35:30",357612,4.37,91.7,6.23,1.027,-2.705,98.16264,-5.38,-4.374,97.7,0,109.2,13.71,-4.65,53.7
"2010-11-22 01:36:00",357613,5.307,105.5,6.529,1.309,-0.356,98.16264,-5.38,-4.44,97.6,0,109.3,13.71,-4.65,67.5
"2010-11-22 01:36:30",357614,5.364,113.9,4.158,0.846,0.498,98.16264,-5.38,-4.279,97.8,0,109.3,13.71,-4.65,75.9
"2010-11-22 01:37:00",357615,5.295,106.2,8.79,0.638,0.861,98.16264,-5.38,-4.289,97.8,0,109.2,13.71,-4.65,68.2
"2010-11-22 01:37:30",357616,5.181,105.7,7.227,0.739,0.762,98.16264,-5.38,-4.268,97.8,0,109.3,13.71,-4.65,67.7
"2010-11-22 01:38:00",357617,4.397,98.3,4.581,0.725,0.273,98.16264,-5.38,-4.304,97.7,0,109.3,13.71,-4.65,60.3
"2010-11-22 01:38:30",357618,2.323,84.1,10.72,1.12,-2.412,98.16321,-5.379,-4.387,97.7,0,109.3,13.71,-4.65,46.1
"2010-11-22 01:39:00",357619,2.627,92.3,6.705,0.807,-3.024,98.16917,-5.364,-4.55,97.5,0,109.3,13.71,-4.63,54.3
"2010-11-22 01:39:30",357620,3.084,85.9,8.22,1.198,-1.649,98.16434,-5.376,-4.416,97.7,0,109.3,13.71,-4.64,47.9
"2010-11-22 01:40:00",357621,4.482,100.1,5.883,0.731,0.221,98.16264,-5.38,-4.302,97.8,0,109.3,13.71,-4.65,62.1
"2010-11-22 01:40:30",357622,4.174,86.2,6.527,0.741,0.212,98.16264,-5.38,-4.292,97.8,0,109.3,13.72,-4.65,48.2
"2010-11-22 01:41:00",357623,4.444,85.8,4.798,0.629,0.063,98.16264,-5.38,-4.291,97.8,0,109.3,13.72,-4.65,47.8
"2010-11-22 01:41:30",357624,3.673,79.59,6.704,1.093,-1,98.16661,-5.37,-4.353,97.7,0,109.3,13.72,-4.64,41.6
"2010-11-22 01:42:00",357625,1.767,76.62,3.774,0.544,-3.639,98.16972,-5.362,-4.455,97.7,0,109.3,13.72,-4.63,38.6
"2010-11-22 01:42:30",357626,3.647,87.7,6.095,0.991,-0.397,98.16774,-5.367,-4.338,97.8,0,109.3,13.72,-4.63,49.7
"2010-11-22 01:43:00",357627,3.522,96.5,8.36,1.241,-0.744,98.16491,-5.375,-4.283,97.8,0,109.2,13.72,-4.64,58.5
"2010-11-22 01:43:30",357628,4.235,97.6,6.845,0.849,-0.106,98.16264,-5.38,-4.314,97.8,0,109.3,13.72,-4.65,59.6
"2010-11-22 01:44:00",357629,4.356,90.1,6.821,1.153,-0.796,98.16264,-5.38,-4.308,97.8,0,109.2,13.72,-4.65,52.1
"2010-11-22 01:44:30",357630,4.705,87.9,6.537,1.268,-1.032,98.16264,-5.38,-4.382,97.7,0,109.3,13.72,-4.65,49.9
"2010-11-22 01:45:00",357631,5.858,97.6,5.838,0.913,-0.105,98.16264,-5.38,-4.268,97.9,0,109.3,13.72,-4.65,59.6
"2010-11-22 01:45:30",357632,5.622,94.1,5.466,1.094,-0.075,98.16264,-5.38,-4.305,97.8,0,109.3,13.72,-4.65,56.1
"2010-11-22 01:46:00",357633,5.573,93.4,4.888,1.039,-0.587,98.16264,-5.38,-4.334,97.8,0,109.3,13.72,-4.65,55.4
"2010-11-22 01:46:30",357634,5.172,90.1,7.311,1.197,-0.845,98.16264,-5.38,-4.338,97.8,0,109.3,13.72,-4.65,52.1
"2010-11-22 01:47:00",357635,5.605,97.1,7.721,0.816,0,98.16009,-5.387,-4.304,97.8,0,109.3,13.72,-4.65,59.1
"2010-11-22 01:47:30",357636,5.323,100.8,4.741,0.825,0.282,98.15612,-5.397,-4.288,97.8,0,109.3,13.72,-4.66,62.8